Date,TemperatureHighF,TemperatureAvgF,TemperatureLowF,DewpointHighF,DewpointAvgF,DewpointLowF,HumidityHigh,HumidityAvg,HumidityLow,PressureMaxIn,PressureMinIn,WindSpeedMaxMPH,WindSpeedAvgMPH,GustSpeedMaxMPH,PrecipitationSumIn
2013-2-1,73.0,54.9,42.3,41.2,33.1,-6.4,85,50,4,30.33,30.18,7,2,11,0.00
2013-2-2,79.7,57.4,44.2,45.3,40.3,33.5,92,57,20,30.30,30.12,7,2,8,0.00
2013-2-3,73.2,54.9,39.9,54.1,46.4,38.6,98,77,45,30.18,30.06,8,2,8,0.00
2013-2-4,79.3,55.3,41.5,55.8,41.9,31.2,98,69,21,30.12,30.01,7,1,8,0.00
2013-2-5,82.6,60.8,41.3,54.5,47.7,31.5,96,67,34,30.06,29.95,6,1,10,1.77
2013-2-6,86.9,69.1,57.9,63.3,58.5,53.4,94,72,40,30.09,29.98,6,2,8,1.77
2013-2-7,83.5,70.2,62.4,67.8,63.4,58.7,97,81,45,30.04,29.83,9,3,13,0.12
2013-2-8,80.1,67.2,56.5,66.9,61.0,55.4,97,82,49,30.06,29.86,8,3,10,0.00
2013-2-9,81.9,65.4,54.3,56.9,53.7,47.4,98,70,35,30.18,30.04,7,3,9,0.00
2013-2-10,83.3,70.0,41.3,62.3,58.6,31.5,89,69,38,30.21,29.97,10,4,13,0.00
2013-2-11,86.0,71.6,62.8,66.8,63.6,60.0,94,78,49,30.18,30.04,7,3,11,0.00
2013-2-12,84.2,72.8,67.1,70.8,68.5,66.0,97,87,63,30.06,29.92,10,3,12,0.00
2013-2-13,83.7,71.2,60.3,73.0,67.8,55.4,98,90,68,29.98,29.83,9,3,10,0.21
2013-2-14,65.7,61.6,59.4,62.2,59.5,54.8,98,93,78,30.04,29.89,7,2,7,0.41
2013-2-15,73.4,60.7,54.9,59.0,54.1,48.2,98,81,43,30.06,29.95,6,2,6,0.00
2013-2-16,74.1,58.3,49.6,54.4,45.2,33.1,94,64,40,30.12,29.92,11,4,21,0.00
2013-2-17,56.8,47.9,35.6,33.3,25.0,18.3,70,41,28,30.33,30.12,11,4,13,0.00
2013-2-18,74.1,52.8,34.5,48.2,36.1,26.5,84,57,29,30.33,30.18,9,2,13,0.00
2013-2-19,82.9,65.6,49.6,62.2,54.7,45.7,95,71,42,30.21,30.06,9,2,11,0.00
2013-2-20,86.0,67.0,59.2,64.9,60.2,54.0,98,81,44,30.09,30.01,6,2,10,0.00
2013-2-21,90.3,69.6,58.1,65.2,61.1,54.8,97,77,42,30.09,29.95,7,2,8,0.00
2013-2-22,88.7,72.5,60.8,69.6,65.9,59.9,98,82,49,30.04,29.95,7,2,11,0.00
2013-2-23,85.8,73.3,68.2,72.7,69.7,67.3,97,89,64,30.01,29.89,8,3,10,0.00
2013-2-24,86.5,72.6,67.6,73.1,68.7,66.8,98,89,58,29.95,29.83,6,1,6,0.00
2013-2-25,87.4,75.1,67.3,71.8,69.2,66.4,98,83,55,29.89,29.74,6,3,7,0.00
2013-2-26,81.3,71.8,64.6,72.2,67.3,61.3,97,86,63,29.86,29.65,8,2,15,0.18
2013-2-27,79.0,65.3,57.7,61.9,55.6,49.5,95,73,43,29.98,29.83,7,2,10,0.00
2013-2-28,79.0,63.5,52.2,61.2,51.4,46.7,98,68,40,30.01,29.89,7,2,8,0.00